Regional Weather Roundup
Issued by NWS Kansas City/Pleasant Hill, MO

Home | Current Version | Previous Version | Graphics & Text | Print | Product List | Glossary Off
Versions: 1 2 3 4 5 6 7 8 9 10 11 12 13 14 15 16 17 18 19 20 21 22 23 24 25 26 27 28 29 30 31 32 33 34 35 36 37 38 39 40 41 42 43 44 45 46 47 48 49 50

000
ASUS43 KEAX 210511
RWREAX

WEATHER ROUNDUP FOR EASTERN KANSAS AND NORTHWEST MISSOURI
NATIONAL WEATHER SERVICE KANSAS CITY/PLEASANT HILL MO
1200 AM CDT TUE APR 21 2015

KSZ040-057-103>105-MOZ028-029-037-043-210600-
...KANSAS CITY METROPOLITAN AREA...

CITY           SKY/WX    TMP DP  RH WIND       PRES   REMARKS
K.C. INTL      MOCLDY    45  29  53 SW7       29.85S
K.C. DOWNTOWN  PTCLDY    51  29  42 SW7       29.85S
LEES SUMMIT    CLEAR     45  30  55 SW8       29.86S
OLATHE - IXD   CLEAR     45  32  60 SW9       29.87F
OLATHE - OJC   CLEAR     47  30  51 SW6       29.86S
LAWRENCE       CLEAR     36  32  85 CALM      29.87S

$$

MOZ001>008-011>017-020>025-030>033-038>040-044>046-053-054-210600-
...NORTHERN AND CENTRAL MISSOURI...

CITY           SKY/WX    TMP DP  RH WIND       PRES   REMARKS
ST. JOSEPH     CLEAR     45  31  58 W8        29.84S
MOSBY          CLOUDY    50  30  46 SW5       29.84S
WARRENSBURG    PTCLDY    45  32  61 SW9       29.86S
WHITEMAN AFB   CLOUDY    48  30  50 SW9       29.85S
CLINTON        CLEAR     46  34  61 SW6       29.88S
SEDALIA        PTCLDY    47  30  51 SW9       29.87S
WARSAW         NOT AVBL
MARSHALL       CLEAR     48  34  57 SW8       29.85S
CHILLICOTHE      N/A     46  28  49 SW3       29.82S
MOBERLY        CLEAR     46  27  46 SW9       29.82S
KIRKSVILLE     CLEAR     45  27  49 SW8       29.78S

$$

MOZ041-047>049-056>058-063>065-088>090-097-210600-
...EASTERN AND SOUTHERN MISSOURI...

CITY           SKY/WX    TMP DP  RH WIND       PRES   REMARKS
ST. LOUIS INTL FAIR      49  30  48 SW10      29.83F
SPIRIT OF STL  CLEAR     48  30  49 SW8       29.83F
COLUMBIA       CLEAR     45  28  51 SW8       29.83F
JEFFERSON CITY CLEAR     48  28  46 CALM      29.85F
MEXICO         CLEAR     46  34  61 SW9       29.82S
HANNIBAL       CLEAR     46  25  42 SW9       29.78S
ROLLA          CLEAR     41  27  57 SW10      29.86S WCI  35
LEBANON        CLEAR     45  28  53 SW5       29.91S
OSAGE BEACH    CLEAR     46  27  46 SW6       29.88S
SPRINGFIELD    CLEAR     42  32  67 SW8       29.92S
BRANSON        CLEAR     46  32  57 CALM      29.96S
NEVADA         CLEAR     45  36  70 SW8       29.92S
JOPLIN         CLEAR     43  36  76 S7        29.93F
WEST PLAINS    CLEAR     44  29  55 SW5       29.94S

$$

IAZ060-094-KSZ022-034>040-054-083-096-NEZ052-066-093-210600-
...KANSAS...SOUTHEAST NEBRASKA AND IOWA...

CITY           SKY/WX    TMP DP  RH WIND       PRES   REMARKS
TOPEKA         CLEAR     46  32  58 W3        29.88R
MANHATTAN      CLEAR     40  33  76 CALM      29.88S
EMPORIA        CLOUDY    48  35  60 SW10      29.89F
CHANUTE        CLEAR     45  38  76 SW7       29.91S
WICHITA        MOCLDY    49  38  65 SW5       29.91F
OMAHA          CLEAR     47  19  33 W12       29.79S
LINCOLN        MOCLDY    43  28  55 CALM      29.84S
FALLS CITY     CLEAR     43  29  57 W3        29.83S
LAMONI         CLEAR     44  26  49 SW10      29.77S
DES MOINES     CLEAR     41  21  44 W8        29.73S

$$



USA.gov is the U.S. government's official web portal to all federal, state and local government web resources and services.